Weather History for KNFL - December, 2014

Change the Weather History Date:

Monday, December 1, 2014

  Actual Average Record
Temperature  
Mean Temperature 36 °F -  
Max Temperature 50 °F 50 °F 68 °F (2012)
Min Temperature 23 °F 22 °F 5 °F (1991)
Degree Days  
Heating Degree Days 28    
Moisture  
Dew Point 30 °F    
Average Humidity 86    
Maximum Humidity 100    
Minimum Humidity 57    
Precipitation  
Precipitation 0.00 in - - ()
Sea Level Pressure  
Sea Level Pressure 30.12 in    
Wind  
Wind Speed 2 mph (NNW)    
Max Wind Speed 8 mph    
Max Gust Speed -    
Visibility 5 miles    
Events Fog    
Averages and records for this station are not official NWS values.
T = Trace of Precipitation, MM = Missing Value Source: NWS Daily Summary

Daily Weather History Graph

Daily Weather History Graph

Search for Another Location

Airport or City:

Trip Planner

Search our weather history database for the weather conditions in past years. The results will help you decide how hot, cold, wet, or windy it might be!

Date:

Astronomy

Dec. 01, 2014 Rise Set
Actual Time 6:55 AM PST 4:31 PM PST
Civil Twilight 6:26 AM PST 5:01 PM PST
Nautical Twilight 5:52 AM PST 5:34 PM PST
Astronomical Twilight 5:20 AM PST 6:07 PM PST
Moon 1:38 PM PST (12/1) 1:39 AM PST (12/1)
Length of Visible Light 10h 35m
Length of Day
9h 35m
Waxing Gibbous, 76% of the Moon is Illuminated
Dec 1
Waxing Gibbous
Dec 6
Full
Dec 14
Last Quarter
Dec 21
New
Dec 28
First Quarter

Hourly Weather History & Observations

Time (PST) Temp. Windchill Dew Point Humidity Pressure Visibility Wind Dir Wind Speed Gust Speed Precip Events Conditions
6:09 AM 28.0 °F - 25.0 °F 88% 30.18 in 0.2 mi Calm Calm - N/A Fog Light Freezing Fog
6:56 AM 28.9 °F 23.9 °F 25.0 °F 85% 30.09 in 0.1 mi WNW 4.6 mph - N/A Fog Light Freezing Fog
7:56 AM 30.9 °F - 28.9 °F 92% 30.11 in 0.1 mi Calm Calm - N/A Fog Light Freezing Fog
8:56 AM 32.0 °F 28.7 °F 30.0 °F 92% 30.12 in 0.1 mi ENE 3.5 mph - N/A Fog Fog
9:56 AM 33.1 °F - 30.9 °F 92% 30.13 in 0.2 mi Calm Calm - N/A Fog Fog
9:58 AM 33.1 °F 30.0 °F 30.9 °F 92% 30.24 in 1.0 mi SW 3.5 mph - N/A   Overcast
10:07 AM 33.1 °F 30.0 °F 32.0 °F 96% 30.24 in 0.2 mi Variable 3.5 mph - N/A Fog Fog
10:23 AM 34.0 °F 29.8 °F 33.1 °F 96% 30.24 in 0.5 mi WNW 4.6 mph - N/A   Overcast
10:38 AM 34.0 °F 29.8 °F 33.1 °F 96% 30.23 in 0.8 mi WNW 4.6 mph - N/A   Overcast
10:50 AM 35.6 °F - 33.8 °F 93% 30.22 in 2.0 mi Calm Calm - N/A   Mostly Cloudy
10:56 AM 36.0 °F 33.3 °F 34.0 °F 93% 30.12 in 4.0 mi Variable 3.5 mph - N/A   Mostly Cloudy
11:15 AM 37.0 °F - 34.0 °F 89% 30.21 in 7.0 mi Calm Calm - N/A   Mostly Cloudy
11:31 AM 39.0 °F 36.8 °F 34.0 °F 82% 30.20 in 10.0 mi Variable 3.5 mph - N/A   Mostly Cloudy
11:56 AM 42.1 °F 40.2 °F 35.1 °F 76% 30.09 in 10.0 mi Variable 3.5 mph - N/A   Mostly Cloudy
12:56 PM 46.9 °F - 35.1 °F 63% 30.06 in 10.0 mi NNE 3.5 mph - N/A   Mostly Cloudy
1:56 PM 50.0 °F - 35.1 °F 57% 30.04 in 10.0 mi Calm Calm - N/A   Mostly Cloudy
2:56 PM 50.0 °F - 35.1 °F 57% 30.04 in 10.0 mi Calm Calm - N/A   Mostly Cloudy
3:56 PM 48.0 °F - 36.0 °F 63% 30.02 in 10.0 mi NE 8.1 mph - N/A   Mostly Cloudy
4:56 PM 41.0 °F 36.4 °F 34.0 °F 76% 30.03 in 10.0 mi NNE 6.9 mph - N/A   Scattered Clouds
5:56 PM 36.0 °F 29.6 °F 30.9 °F 82% 30.03 in 10.0 mi NNE 8.1 mph - N/A   Scattered Clouds
6:56 PM 35.1 °F 32.2 °F 30.9 °F 85% 30.04 in 10.0 mi NE 3.5 mph - N/A   Scattered Clouds
7:56 PM 30.9 °F 27.5 °F 28.9 °F 92% 30.05 in 10.0 mi NNW 3.5 mph - N/A   Partly Cloudy
8:56 PM 30.9 °F 27.5 °F 28.0 °F 89% 30.05 in 10.0 mi West 3.5 mph - N/A   Partly Cloudy
9:56 PM 28.0 °F - 25.0 °F 88% 30.05 in 10.0 mi Calm Calm - N/A   Partly Cloudy
10:53 PM 26.6 °F 22.6 °F 24.8 °F 93% 30.15 in 1.8 mi South 3.5 mph - N/A   Clear
10:56 PM 26.1 °F 20.5 °F 24.1 °F 92% 30.05 in 1.0 mi South 4.6 mph - N/A   Mist
11:04 PM 26.1 °F 21.9 °F 25.0 °F 96% 30.15 in 0.5 mi SSW 3.5 mph - N/A Fog Light Freezing Fog
11:53 PM 23.0 °F - 23.0 °F 100% 30.14 in 0.2 mi Calm Calm - N/A Fog Light Freezing Fog
11:56 PM 24.1 °F - 21.9 °F 91% 30.04 in 0.2 mi Calm Calm - N/A Fog Light Freezing Fog